TimeCST,TemperatureF,Dew PointF,Humidity,Sea Level PressureIn,VisibilityMPH,Wind Direction,Wind SpeedMPH,Gust SpeedMPH,PrecipitationIn,Events,Conditions,WindDirDegrees,DateUTC
12:15 AM,26.6,23.0,86,30.16,10.0,Calm,Calm,-,N/A,,Overcast,0,2014-02-09 06:15:00
12:35 AM,26.6,23.0,86,30.15,10.0,Calm,Calm,-,N/A,,Overcast,0,2014-02-09 06:35:00
12:55 AM,26.6,23.0,86,30.15,10.0,Calm,Calm,-,N/A,,Overcast,0,2014-02-09 06:55:00
1:15 AM,26.6,23.0,86,30.16,10.0,Calm,Calm,-,N/A,,Overcast,0,2014-02-09 07:15:00
1:35 AM,26.6,24.8,93,30.17,10.0,Calm,Calm,-,N/A,,Overcast,0,2014-02-09 07:35:00
1:55 AM,26.6,23.0,86,30.17,10.0,Calm,Calm,-,N/A,,Overcast,0,2014-02-09 07:55:00
2:15 AM,26.6,23.0,86,30.16,10.0,Calm,Calm,-,N/A,,Overcast,0,2014-02-09 08:15:00
2:35 AM,26.6,24.8,93,30.14,10.0,Calm,Calm,-,N/A,,Overcast,0,2014-02-09 08:35:00
2:55 AM,26.6,23.0,86,30.14,10.0,Calm,Calm,-,N/A,,Overcast,0,2014-02-09 08:55:00
3:15 AM,26.6,24.8,93,30.13,10.0,Calm,Calm,-,N/A,,Overcast,0,2014-02-09 09:15:00
3:35 AM,26.6,24.8,93,30.14,10.0,North,4.6,-,N/A,,Overcast,360,2014-02-09 09:35:00
3:55 AM,26.6,23.0,86,30.14,10.0,North,4.6,-,N/A,,Overcast,10,2014-02-09 09:55:00
4:15 AM,26.6,21.2,80,30.14,10.0,North,4.6,-,N/A,,Overcast,10,2014-02-09 10:15:00
4:35 AM,26.6,21.2,80,30.14,10.0,NNE,4.6,-,N/A,,Overcast,20,2014-02-09 10:35:00
4:55 AM,26.6,21.2,80,30.15,10.0,North,4.6,-,N/A,,Overcast,360,2014-02-09 10:55:00
5:15 AM,26.6,21.2,80,30.15,10.0,North,3.5,-,N/A,,Overcast,360,2014-02-09 11:15:00
5:35 AM,26.6,21.2,80,30.16,10.0,Calm,Calm,-,N/A,,Overcast,0,2014-02-09 11:35:00
5:55 AM,26.6,21.2,80,30.16,10.0,Calm,Calm,-,N/A,,Overcast,0,2014-02-09 11:55:00
6:15 AM,26.6,21.2,80,30.17,10.0,Calm,Calm,-,N/A,,Overcast,0,2014-02-09 12:15:00
6:35 AM,26.6,21.2,80,30.16,10.0,North,3.5,-,N/A,,Overcast,10,2014-02-09 12:35:00
6:55 AM,26.6,21.2,80,30.15,10.0,Calm,Calm,-,N/A,,Overcast,0,2014-02-09 12:55:00
7:15 AM,26.6,21.2,80,30.17,10.0,Calm,Calm,-,N/A,,Overcast,0,2014-02-09 13:15:00
7:35 AM,26.6,21.2,80,30.20,10.0,Calm,Calm,-,N/A,,Overcast,0,2014-02-09 13:35:00
7:55 AM,26.6,21.2,80,30.19,10.0,Calm,Calm,-,N/A,,Overcast,0,2014-02-09 13:55:00
8:15 AM,26.6,21.2,80,30.20,10.0,Calm,Calm,-,N/A,,Overcast,0,2014-02-09 14:15:00
8:35 AM,26.6,21.2,80,30.21,3.0,Calm,Calm,-,N/A,,Overcast,0,2014-02-09 14:35:00
8:55 AM,26.6,21.2,80,30.20,4.0,North,3.5,-,N/A,,Overcast,350,2014-02-09 14:55:00
9:15 AM,28.4,21.2,74,30.21,10.0,Calm,Calm,-,N/A,,Overcast,0,2014-02-09 15:15:00
9:35 AM,28.4,21.2,74,30.21,10.0,West,4.6,-,N/A,,Overcast,260,2014-02-09 15:35:00
9:55 AM,28.4,21.2,74,30.21,10.0,WNW,3.5,-,N/A,,Scattered Clouds,290,2014-02-09 15:55:00
10:15 AM,28.4,21.2,74,30.21,10.0,West,4.6,-,N/A,,Scattered Clouds,270,2014-02-09 16:15:00
10:35 AM,28.4,21.2,74,30.21,10.0,NW,4.6,-,N/A,,Overcast,310,2014-02-09 16:35:00
10:55 AM,28.4,21.2,74,30.21,10.0,NNW,5.8,-,N/A,,Overcast,330,2014-02-09 16:55:00
11:15 AM,28.4,21.2,74,30.21,10.0,NNW,4.6,-,N/A,,Overcast,330,2014-02-09 17:15:00
11:35 AM,28.4,19.4,69,30.20,10.0,North,9.2,-,N/A,,Overcast,360,2014-02-09 17:35:00
11:55 AM,28.4,21.2,74,30.18,10.0,North,5.8,-,N/A,,Overcast,360,2014-02-09 17:55:00
12:15 PM,28.4,19.4,69,30.19,10.0,NW,5.8,-,N/A,,Mostly Cloudy,310,2014-02-09 18:15:00
12:35 PM,28.4,19.4,69,30.19,10.0,WNW,5.8,-,N/A,,Mostly Cloudy,300,2014-02-09 18:35:00
12:55 PM,28.4,19.4,69,30.19,10.0,NW,4.6,-,N/A,,Scattered Clouds,320,2014-02-09 18:55:00
1:15 PM,28.4,19.4,69,30.19,10.0,North,4.6,-,N/A,,Mostly Cloudy,10,2014-02-09 19:15:00
1:35 PM,28.4,17.6,64,30.20,10.0,Calm,Calm,-,N/A,,Overcast,0,2014-02-09 19:35:00
1:55 PM,28.4,17.6,64,30.20,10.0,Calm,Calm,-,N/A,,Overcast,0,2014-02-09 19:55:00
2:15 PM,28.4,17.6,64,30.21,10.0,NW,4.6,-,N/A,,Mostly Cloudy,310,2014-02-09 20:15:00
2:35 PM,26.6,15.8,64,30.22,10.0,NW,5.8,-,N/A,,Overcast,310,2014-02-09 20:35:00
2:55 PM,26.6,17.6,69,30.23,10.0,WNW,3.5,-,N/A,,Overcast,300,2014-02-09 20:55:00
3:15 PM,26.6,15.8,64,30.25,10.0,NNW,4.6,-,N/A,,Overcast,340,2014-02-09 21:15:00
3:35 PM,24.8,17.6,74,30.26,1.2,NNW,5.8,-,N/A,,Overcast,330,2014-02-09 21:35:00
3:55 PM,24.8,19.4,80,30.26,1.2,WNW,3.5,-,N/A,,Overcast,290,2014-02-09 21:55:00
4:15 PM,24.8,19.4,80,30.26,3.0,WNW,3.5,-,N/A,,Overcast,300,2014-02-09 22:15:00
4:35 PM,24.8,17.6,74,30.26,1.8,Calm,Calm,-,N/A,,Overcast,0,2014-02-09 22:35:00
4:55 PM,24.8,17.6,74,30.26,2.0,Calm,Calm,-,N/A,,Overcast,0,2014-02-09 22:55:00
5:15 PM,23.0,17.6,80,30.27,7.0,WNW,3.5,-,N/A,,Overcast,290,2014-02-09 23:15:00
5:35 PM,23.0,17.6,80,30.29,8.0,West,3.5,-,N/A,,Overcast,270,2014-02-09 23:35:00
5:55 PM,23.0,15.8,74,30.30,9.0,WNW,4.6,-,N/A,,Overcast,300,2014-02-09 23:55:00
6:15 PM,21.2,12.2,68,30.31,2.5,NW,5.8,-,N/A,,Mostly Cloudy,310,2014-02-10 00:15:00
6:35 PM,21.2,15.8,80,30.31,1.5,North,3.5,-,N/A,,Overcast,350,2014-02-10 00:35:00
6:55 PM,19.4,15.8,86,30.30,1.8,North,5.8,-,N/A,,Overcast,350,2014-02-10 00:55:00
7:15 PM,19.4,15.8,86,30.30,3.0,North,5.8,-,N/A,,Overcast,350,2014-02-10 01:15:00
7:35 PM,19.4,15.8,86,30.30,5.0,North,5.8,-,N/A,,Mostly Cloudy,350,2014-02-10 01:35:00
7:55 PM,19.4,15.8,86,30.30,2.0,Calm,Calm,-,N/A,,Overcast,0,2014-02-10 01:55:00
8:15 PM,19.4,15.8,86,30.32,4.0,Calm,Calm,-,N/A,,Overcast,0,2014-02-10 02:15:00
8:35 PM,19.4,15.8,86,30.31,2.5,Calm,Calm,-,N/A,,Overcast,0,2014-02-10 02:35:00
8:55 PM,19.4,15.8,86,30.32,3.0,Calm,Calm,-,N/A,,Overcast,0,2014-02-10 02:55:00
9:15 PM,19.4,15.8,86,30.32,5.0,North,3.5,-,N/A,,Overcast,360,2014-02-10 03:15:00
9:35 PM,19.4,15.8,86,30.33,9.0,Calm,Calm,-,N/A,,Overcast,0,2014-02-10 03:35:00
9:55 PM,19.4,14.0,80,30.33,10.0,Calm,Calm,-,N/A,,Overcast,0,2014-02-10 03:55:00
10:15 PM,19.4,14.0,80,30.33,10.0,NNW,4.6,-,N/A,,Overcast,340,2014-02-10 04:15:00
10:35 PM,19.4,12.2,74,30.32,10.0,North,3.5,-,N/A,,Overcast,360,2014-02-10 04:35:00
10:55 PM,19.4,12.2,74,30.33,10.0,North,4.6,-,N/A,,Overcast,10,2014-02-10 04:55:00
11:15 PM,19.4,12.2,74,30.32,10.0,North,3.5,-,N/A,,Overcast,360,2014-02-10 05:15:00
11:35 PM,19.4,10.4,68,30.32,10.0,North,3.5,-,N/A,,Overcast,10,2014-02-10 05:35:00
11:55 PM,19.4,10.4,68,30.33,10.0,Calm,Calm,-,N/A,,Overcast,0,2014-02-10 05:55:00